TimeCST,TemperatureF,Dew PointF,Humidity,Sea Level PressureIn,VisibilityMPH,Wind Direction,Wind SpeedMPH,Gust SpeedMPH,PrecipitationIn,Events,Conditions,WindDirDegrees,DateUTC
12:15 AM,18.3,14.7,86,30.22,10.0,South,3.5,-,N/A,,Clear,180,2012-12-30 06:15:00
12:55 AM,17.2,14.2,88,30.23,10.0,SSW,5.8,-,N/A,,Clear,200,2012-12-30 06:55:00
1:15 AM,20.3,16.2,84,30.23,10.0,SW,8.1,-,N/A,,Clear,220,2012-12-30 07:15:00
1:35 AM,21.7,16.5,80,30.23,10.0,SSW,5.8,-,N/A,,Clear,210,2012-12-30 07:35:00
1:55 AM,21.6,16.3,80,30.23,10.0,SSW,5.8,-,N/A,,Clear,210,2012-12-30 07:55:00
2:15 AM,20.8,16.0,81,30.23,10.0,SSW,5.8,-,N/A,,Clear,210,2012-12-30 08:15:00
2:35 AM,19.8,15.1,82,30.23,10.0,South,3.5,-,N/A,,Clear,170,2012-12-30 08:35:00
2:55 AM,18.3,14.5,85,30.23,10.0,Calm,Calm,-,N/A,,Clear,0,2012-12-30 08:55:00
3:15 AM,17.8,14.7,88,30.22,10.0,South,3.5,-,N/A,,Clear,180,2012-12-30 09:15:00
3:35 AM,17.8,14.5,87,30.21,10.0,SSE,4.6,-,N/A,,Clear,150,2012-12-30 09:35:00
3:55 AM,17.2,14.5,89,30.21,10.0,SSE,6.9,-,N/A,,Clear,160,2012-12-30 09:55:00
4:15 AM,18.0,14.2,85,30.20,10.0,SSE,6.9,-,N/A,,Clear,160,2012-12-30 10:15:00
7:35 AM,21.0,16.5,83,30.18,10.0,SSE,10.4,-,N/A,,Clear,150,2012-12-30 13:35:00
7:55 AM,19.9,15.8,84,30.17,10.0,SSE,10.4,-,N/A,,Clear,150,2012-12-30 13:55:00
8:15 AM,20.3,16.3,85,30.16,10.0,SSE,9.2,-,N/A,,Clear,150,2012-12-30 14:15:00
8:35 AM,21.2,16.7,83,30.16,10.0,SSE,10.4,-,N/A,,Clear,150,2012-12-30 14:35:00
8:55 AM,21.7,16.9,82,30.14,10.0,SE,11.5,-,N/A,,Clear,140,2012-12-30 14:55:00
9:15 AM,23.5,17.6,78,30.14,10.0,SE,10.4,-,N/A,,Clear,140,2012-12-30 15:15:00
9:35 AM,23.9,18.1,79,30.14,10.0,SSE,10.4,-,N/A,,Clear,150,2012-12-30 15:35:00
9:55 AM,26.4,19.2,74,30.14,10.0,SSE,11.5,-,N/A,,Clear,150,2012-12-30 15:55:00
10:15 AM,29.5,20.3,69,30.13,10.0,SSE,11.5,16.1,N/A,,Clear,150,2012-12-30 16:15:00
10:35 AM,31.5,21.7,67,30.13,10.0,SSE,12.7,-,N/A,,Clear,150,2012-12-30 16:35:00
10:55 AM,32.7,23.0,67,30.13,10.0,SSE,9.2,-,N/A,,Clear,160,2012-12-30 16:55:00
11:15 AM,36.1,23.4,60,30.10,10.0,South,16.1,20.7,N/A,,Clear,170,2012-12-30 17:15:00
11:35 AM,37.9,23.9,57,30.08,10.0,SSE,15.0,-,N/A,,Clear,160,2012-12-30 17:35:00
11:55 AM,39.7,23.9,53,30.05,10.0,South,18.4,21.9,N/A,,Clear,170,2012-12-30 17:55:00
12:15 PM,40.1,24.3,53,30.03,10.0,South,18.4,25.3,N/A,,Clear,170,2012-12-30 18:15:00
12:35 PM,40.8,24.3,52,30.01,10.0,SSE,18.4,26.5,N/A,,Clear,160,2012-12-30 18:35:00
12:55 PM,41.0,24.3,51,30.00,10.0,South,18.4,26.5,N/A,,Clear,170,2012-12-30 18:55:00
1:15 PM,41.4,25.0,52,29.99,10.0,South,17.3,25.3,N/A,,Clear,180,2012-12-30 19:15:00
1:35 PM,42.3,25.2,51,29.98,10.0,South,16.1,23.0,N/A,,Clear,190,2012-12-30 19:35:00
1:55 PM,43.3,25.3,49,29.97,10.0,South,19.6,24.2,N/A,,Clear,190,2012-12-30 19:55:00
2:15 PM,44.8,25.7,47,29.97,10.0,SSW,19.6,24.2,N/A,,Clear,200,2012-12-30 20:15:00
2:35 PM,45.1,23.5,43,29.97,10.0,SSW,19.6,35.7,N/A,,Clear,200,2012-12-30 20:35:00
2:55 PM,44.2,23.9,45,29.96,10.0,South,20.7,27.6,N/A,,Clear,190,2012-12-30 20:55:00
3:15 PM,44.8,24.6,45,29.95,10.0,South,19.6,28.8,N/A,,Clear,190,2012-12-30 21:15:00
3:35 PM,44.6,25.5,47,29.96,10.0,SSW,17.3,25.3,N/A,,Clear,200,2012-12-30 21:35:00
3:55 PM,43.7,25.0,48,29.97,10.0,SSW,16.1,24.2,N/A,,Clear,200,2012-12-30 21:55:00
4:15 PM,43.2,25.3,49,29.97,10.0,South,16.1,-,N/A,,Clear,190,2012-12-30 22:15:00
4:35 PM,42.1,25.7,52,29.97,10.0,SSW,11.5,-,N/A,,Clear,210,2012-12-30 22:35:00
4:55 PM,41.0,26.4,56,29.98,10.0,SSW,10.4,-,N/A,,Clear,200,2012-12-30 22:55:00
5:15 PM,40.1,26.8,59,29.99,10.0,SSW,6.9,-,N/A,,Clear,200,2012-12-30 23:15:00
5:35 PM,39.9,26.8,59,30.00,10.0,SW,5.8,-,N/A,,Clear,220,2012-12-30 23:35:00
5:55 PM,38.5,27.5,65,30.01,10.0,WSW,5.8,-,N/A,,Clear,250,2012-12-30 23:55:00
6:15 PM,37.8,28.0,68,30.02,10.0,West,11.5,-,N/A,,Clear,260,2012-12-31 00:15:00
6:35 PM,36.3,27.0,69,30.03,10.0,WSW,12.7,-,N/A,,Clear,250,2012-12-31 00:35:00
6:55 PM,34.9,26.4,71,30.03,10.0,West,10.4,-,N/A,,Clear,260,2012-12-31 00:55:00
7:15 PM,34.0,26.2,73,30.04,10.0,West,10.4,-,N/A,,Clear,270,2012-12-31 01:15:00
7:35 PM,33.8,25.5,72,30.04,10.0,West,9.2,-,N/A,,Clear,260,2012-12-31 01:35:00
7:55 PM,33.1,25.3,73,30.04,10.0,West,9.2,-,N/A,,Clear,270,2012-12-31 01:55:00
8:15 PM,32.9,25.3,74,30.05,10.0,West,8.1,-,N/A,,Clear,260,2012-12-31 02:15:00
8:35 PM,32.4,25.2,75,30.04,10.0,West,6.9,-,N/A,,Clear,260,2012-12-31 02:35:00
8:55 PM,32.0,25.0,75,30.05,10.0,West,6.9,-,N/A,,Clear,270,2012-12-31 02:55:00
9:15 PM,32.0,24.6,74,30.04,10.0,West,8.1,-,N/A,,Clear,280,2012-12-31 03:15:00
9:35 PM,32.0,23.9,72,30.05,10.0,West,6.9,-,N/A,,Clear,280,2012-12-31 03:35:00
9:55 PM,32.0,22.8,69,30.07,10.0,West,10.4,-,N/A,,Clear,280,2012-12-31 03:55:00
10:15 PM,31.5,21.7,67,30.07,10.0,WNW,10.4,-,N/A,,Scattered Clouds,300,2012-12-31 04:15:00
10:35 PM,30.7,21.0,67,30.08,10.0,WNW,11.5,-,N/A,,Scattered Clouds,290,2012-12-31 04:35:00
10:55 PM,29.8,21.4,71,30.08,10.0,WNW,9.2,-,N/A,,Scattered Clouds,290,2012-12-31 04:55:00
11:15 PM,28.2,19.2,69,30.08,10.0,NW,13.8,19.6,N/A,,Scattered Clouds,310,2012-12-31 05:15:00
11:35 PM,26.8,17.8,69,30.08,10.0,NW,11.5,-,N/A,,Clear,320,2012-12-31 05:35:00
11:55 PM,26.4,17.6,69,30.09,10.0,NW,10.4,-,N/A,,Clear,320,2012-12-31 05:55:00